Weather Roundup
Issued by NWS Chicago, IL

Home | Current Version | Previous Version | Text Only | Print | Product List | Glossary On
Versions: 1 2 3 4 5 6 7 8 9 10 11 12 13 14 15 16 17 18 19 20 21 22 23 24 25 26 27 28 29 30 31 32 33 34 35 36 37 38 39 40 41 42 43 44 45 46 47 48 49 50
000
NZUS59 KLOT 221706
HRRLOT

CHICAGO AREA WEATHER ROUNDUP
NATIONAL WEATHER SERVICE CHICAGO/ROMEOVILLE IL
1100 AM CST MON DEC 22 2014

NOTE: "FAIR" INDICATES FEW OR NO CLOUDS BELOW 12,000 FEET WITH NO
SIGNIFICANT WEATHER AND/OR OBSTRUCTIONS TO VISIBILITY.

* THESE STATIONS ARE NOT UNDER NWS QUALITY CONTROL. THEY ALSO MAY NOT
  REPORT WEATHER SUCH AS PRECIPITATION OR FOG.

ILZ005-006-012>014-019>023-221800-
NORTHEAST ILLINOIS

CITY           SKY/WX    TMP DP  RH WIND       PRES   REMARKS
OHARE          LGTSLEET  35  29  78 SE12      29.85F WCI  27
MIDWAY         LGT RAIN  36  30  79 SE8       29.86F
AURORA         LGT RAIN  36  30  79 SE13      29.83F
LANSING*       LGT RAIN  34  31  88 SE10      29.87F WCI  26
JOLIET*        RAIN      33  31  92 SE12      29.85F WCI  25
WAUKEGAN       CLOUDY    36  31  82 SE14      29.86F HAZE
DUPAGE AIRPORT LGT RAIN  35  29  78 SE9       29.84F WCI  28
WHEELING       CLOUDY    36  29  75 SE8       29.87F
KANKAKEE*      LGT RAIN  35  33  93 E14       29.84F WCI  25
MORRIS*        LGT RAIN  35  34  97 E9        29.82F WCI  27
LEWIS AIRPORT* RAIN      34  32  92 SE10      29.84F WCI  26
NORTHERLY IS     N/A     34  30  86 SE10        N/A  WCI  26
$$

WIZ051-052-058>065-066-070>072-221800-
SOUTHEAST WISCONSIN

CITY           SKY/WX    TMP DP  RH WIND       PRES   REMARKS
MILWAUKEE      CLOUDY    37  31  78 SE14      29.88F HAZE
KENOSHA*       CLOUDY    37  32  82 SE10      29.86F HAZE
RACINE*        CLOUDY    37  32  82 SE10G18   29.89F HAZE
BURLINGTON     CLOUDY    34  30  86 E10       29.84F WCI  26
WAUKESHA       CLOUDY    36  30  80 E12       29.86F FOG
WEST BEND      CLOUDY    36  32  87 SE12      29.86F
$$

INZ001>003-010>013-019-020-221800-
NORTHWEST INDIANA

CITY           SKY/WX    TMP DP  RH WIND       PRES   REMARKS
GARY*          NOT AVBL
MICHIGAN CITY* NOT AVBL
RENSSELAER*    NOT AVBL
VALPARAISO     MIX PCPN  34  29  82 SE13      29.89F WCI  25
$$

LMZ740>746-221800-
SOUTHERN LAKE MICHIGAN

STATION/POSITION TIME  SKY/WX   TEMP WIND        PRES    VSBY
                                AIR  DIR/SP/G
                 (UTC)          (F)  (DEG/KT/KT) (MB)    (MI)
HARRISON CRIB    1700            34  140/ 18/ 20   N/A
BURNHAM HARBOR   1700            34  130/ 11/ 14   N/A
CALUMET HARBOR   1600            35  130/  4/  7 1010.9F
BURNS HARBOR     NOT AVBL
MICHIGAN CITY    NOT AVBL
$$

ABBREVIATIONS USED IN REMARKS
   TC - TEMPERATURE IN CELSIUS
  WCI - WIND CHILL INDEX
   HX - HEAT INDEX
  VSB - VISIBILITY
$$



USA.gov is the U.S. government's official web portal to all federal, state and local government web resources and services.